{"data":{"norad_id":66685,"epoch":"2026-05-25T03:28:45.902208Z","epoch_age_seconds":55787,"freshness":"FRESH","line1":"1 66685U 25276V   26145.14497572  .00011096  00000+0  48511-3 0  9998","line2":"2 66685  97.4220 219.4414 0006403  95.6513 264.5454 15.22232556 26948","mean_motion":15.22232556,"eccentricity":0.0006403,"inclination_deg":97.422,"raan_deg":219.4414,"arg_perigee_deg":95.6513,"mean_anomaly_deg":264.5454,"bstar":0.00048511,"rev_number":2694,"period_min":94.597897957452,"perigee_km":494.70462301893,"apogee_km":503.51162312354,"semimajor_km":6877.2451230712,"source":"CELESTRAK","updated_at":"2026-05-25T13:38:06.411534Z"}}